www.pogodaiklimat.ru

Погода и климат >> Архив погоды >> Бенин >> Натитингу


ПОГОДА в Натитингу

  • Прогноз погоды в Натитингу
  • Монитор погоды в Натитингу

АРХИВ ПОГОДЫ в Натитингу

Время (UTC), дата Ветер
(напр.,м/с)
 
Видим.   Явления Облачность Т
(С)
Тd
(С)
f
(%)
Тe
(С)
Тes
(С)
Комфортность P
(гПа)
Po
(гПа)
Тmin
(С)
Tmax
(С)
R
(мм)
R24
(мм)
S
(см)
06 19.06 ЮВ 1 10 км 6/0
[Ci sp]
+24.7 +23.8 95 +34 +34 очень
душно
1012.2 965.1 +24.4
09 19.06 СЗ 6 10 км гроза без осадков 10/9 400 м
[Cb cap Ac As]
+27.0 +20.0 66 +33 +33 очень
душно
1016.7 969.2
12 19.06 Ю 2 10 км в посл. час гроза {дождь} 9/1 600 м
[Cu med, cong Ac cuf Ci sp]
+32.0 +19.9 49 +38 +49 очень
душно
1011.1 964.2 0.7
15 19.06 ЮВ 1 10 км 9/0
[Ac trans Ci sp]
+33.8 +20.7 46 +41 +49 опасность
перегрева
1009.2 962.4
18 19.06 ЮЗ 3 10 км 9/0
[Ac trans Ci sp]
+31.7 +22.9 60 +42 +42 опасность
перегрева
1009.5 962.5 +34.8 0.7
21 19.06 ЮВ 1 10 км 9/0
[Ac trans Ci sp]
+27.7 +24.5 83 +39 +39 очень
душно
1012.0 964.8
00 20.06 ЮВ 1 10 км 8/0
[Ac trans Ci sp]
+26.3 +23.7 86 +36 +36 очень
душно
1011.4 964.4
03 20.06 ЮВ 1 10 км 8/0
[Ac trans Ci sp]
+25.5 +22.9 86 +34 +34 очень
душно
1010.0 963.2
06 20.06 Ю 1 10 км 8/0
[Ac trans Ci sp]
+24.7 +23.4 92 +33 +33 очень
душно
1010.6 963.5 +24.1 0.7
09 20.06 Ю 4 10 км 9/6 400 м
[Cu Sc Ac trans Ci sp]
+28.9 +24.4 77 +41 +43 опасность
перегрева
1011.7 964.7
12 20.06 Ю 3 10 км 9/6 400 м
[Cu Sc Ci sp]
+32.1 +23.5 60 +43 +49 опасность
перегрева
1011.1 964.1
15 20.06 Ю 2 10 км 9/6 400 м
[Cu Sc Ci sp]
+34.0 +22.7 52 +44 +47 опасность
перегрева
1008.9 962.2
18 20.06 ЮЗ 2 10 км 9/5 400 м
[Cb cap Ci sp]
+32.2 +23.5 60 +43 +43 опасность
перегрева
1009.2 962.2 +34.5
21 20.06 штиль 0 10 км в посл. час дождь {гроза} 10/3 900 м
[Cb cap Ac As]
+22.4 +20.9 91 +29 +29 очень
душно
1011.7 964.2
00 21.06 ЮВ 2 10 км {гроза, дождь} 10/1 900 м
[Cb cap Ac As]
+24.5 +22.9 91 +32 +32 очень
душно
1012.7 965.6 8
03 21.06 Ю 1 10 км 10/0
[Ac As]
+25.0 +23.6 92 +34 +34 очень
душно
1011.2 964.3
06 21.06 ЮВ 2 10 км 9/0
[Ac trans Ci sp]
+24.1 +22.5 91 +32 +32 очень
душно
1011.9 964.8 +21.0 8
09 21.06 Ю 2 10 км 9/8 400 м
[Cu Sc Ac trans Ci sp]
+28.0 +24.5 81 +39 +41 очень
душно
1013.8 966.1
12 21.06 ЮЗ 3 10 км 9/8 400 м
[Cu Sc Ac trans Ci sp]
+30.0 +23.6 69 +41 +44 опасность
перегрева
1012.8 965.5
15 21.06 Ю 3 10 км 9/5 400 м
[Cu Sc Ac trans Ci sp]
+32.0 +23.6 61 +43 +46 опасность
перегрева
1010.4 963.4
18 21.06 Ю 3 10 км 8/0
[Ci sp]
+28.0 +23.0 74 +37 +37 очень
душно
1010.8 963.4 +32.5
21 21.06 Ю 2 10 км 8/0
[Ci sp]
+25.8 +23.2 86 +35 +35 очень
душно
1012.5 965.2
00 22.06 Ю 2 10 км 8/0
[Ci sp]
+24.5 +23.2 92 +33 +33 очень
душно
1013.5 966.2
03 22.06 штиль 0 10 км 8/0
[Ci sp]
+24.0 +22.7 92 +31 +31 очень
душно
1011.2 964.1
06 22.06 ЮЗ 1 10 км 9/0
[Ac trans Ci sp]
+23.7 +22.8 95 +31 +31 очень
душно
1012.8 965.3 +21.0
09 22.06 Ю 4 10 км 9/1 600 м
[Cu med, cong Ac trans Ci sp]
+28.0 +25.2 85 +41 +45 опасность
перегрева
1014.3 966.9
12 22.06 С 1 10 км 9/6 400 м
[Cu Sc Ac trans Ci sp]
+27.2 +23.3 79 +37 +43 очень
душно
1013.3 965.8
15 22.06 ЮВ 2 10 км 9/0
[Ac trans Ci]
+29.6 +23.4 69 +40 +47 очень
душно
1009.3 962.1
18 22.06 Ю 1 10 км 9/0
[Ci]
+29.1 +23.3 71 +39 +39 очень
душно
1009.1 961.9 +30.5
21 22.06 Ю 1 10 км 8/0
[Ci sp]
+26.0 +23.9 88 +36 +36 очень
душно
1011.1 963.9
00 23.06 Ю 1 10 км 8/0
[Ci sp]
+25.0 +23.6 92 +34 +34 очень
душно
1011.2 963.8
03 23.06 Ю 1 10 км 8/0
[Ci sp]
+24.0 +23.6 98 +33 +33 очень
душно
1010.3 963.0
06 23.06 Ю 2 10 км 9/0
[Ac trans Ci sp]
+24.0 +22.8 93 +32 +32 очень
душно
1010.7 963.4 +23.2
09 23.06 Ю 4 10 км 10/4 600 м
[Cu med, cong Ac trans Ci]
+27.7 +23.1 76 +37 +39 очень
душно
1012.1 964.8
12 23.06 Ю 3 10 км 10/5 600 м
[Cu med, cong Ci sp]
+31.0 +23.2 63 +41 +48 опасность
перегрева
1010.9 963.8
15 23.06 Ю 5 10 км 9/3 600 м
[Cu med, cong Ac trans Ci sp]
+31.8 +23.2 60 +42 +44 опасность
перегрева
1008.5 961.5
21 23.06 Ю 1 10 км зарница 9/3 600 м
[Cb cap Ac As]
+27.0 +24.3 85 +38 +38 очень
душно
1010.8 963.6
00 24.06 штиль 0 10 км 9/0
[Ac As]
+26.4 +24.3 88 +37 +37 очень
душно
1010.9 963.9
03 24.06 Ю 1 10 км 9/0
[Ac As]
+26.3 +24.5 90 +37 +37 очень
душно
1010.3 963.4
06 24.06 Ю 1 10 км 9/0
[Ac trans Ci sp]
+25.0 +23.6 92 +34 +34 очень
душно
1010.4 963.2 +24.5
09 24.06 Ю 4 10 км 9/6 400 м
[Cu Sc Ac trans Ci sp]
+28.2 +23.2 74 +38 +40 очень
душно
1010.9 963.7
12 24.06 Ю 4 10 км 9/5 600 м
[Cu med, cong Ac trans Ci sp]
+31.5 +23.6 63 +43 +47 опасность
перегрева
1009.1 962.2
15 24.06 ЮЗ 4 10 км 9/4 600 м
[Cu med, cong Ci sp]
+33.0 +23.1 56 +43 +47 опасность
перегрева
1007.1 960.4
18 24.06 ЮЗ 2 10 км гроза, ливневой дождь 10/1 900 м
[Cb cap Ac As]
+21.7 +19.9 90 +27 +27 душно 1009.2 961.5 +33.5 7
21 24.06 ЮЗ 1 10 км {гроза, дождь} 10/1 900 м
[Cb cap Ac As]
+22.4 +21.2 93 +29 +29 очень
душно
1010.1 962.7
00 25.06 ЮВ 4 10 км {гроза, дождь} 10/0
[Ac As]
+22.7 +21.4 92 +30 +30 очень
душно
1010.6 963.4 2
03 25.06 ЮВ 3 10 км 9/0
[Ac trans Ci sp]
+21.8 +20.1 90 +27 +27 душно 1009.8 962.7
06 25.06 Ю 4 10 км 9/1 400 м
[Sc Ac trans Ci sp]
+21.1 +19.7 92 +26 +26 душно 1011.1 963.0 +20.5 9
09 25.06 ЮВ 5 10 км 9/6 400 м
[Cu Sc Ac trans Ci sp]
+23.3 +21.1 87 +31 +33 очень
душно
1011.7 963.8
12 25.06 ЮВ 3 10 км 9/5 400 м
[Cu Sc Ac trans Ci sp]
+27.9 +23.0 75 +37 +43 очень
душно
1011.1 963.6
15 25.06 Ю 4 10 км 9/5 400 м
[Cu Sc Ac trans Ci sp]
+28.7 +22.7 70 +38 +40 очень
душно
1009.6 962.2
18 25.06 ЮВ 2 10 км 9/6 400 м
[Cu Sc Ac trans Ci sp]
+26.9 +22.0 75 +35 +35 очень
душно
1010.6 962.9 +29.4
21 25.06 ЮВ 1 10 км 9/0
[Ac trans Ci sp]
+24.7 +22.7 89 +33 +33 очень
душно
1011.5 963.8
00 26.06 Ю 2 10 км 9/0
[Ac trans Ci sp]
+23.5 +22.5 94 +31 +31 очень
душно
1011.9 964.4
03 26.06 Ю 2 10 км 9/0
[Ac trans Ci sp]
+23.5 +23.1 98 +31 +31 очень
душно
1011.7 964.3

 

Местоположение метеостанции Натитингу (Бенин): широта 10.32 долгота 1.38 высота над уровнем моря 461 м.

В архиве по умолчанию представлена погода в Натитингу за последнюю неделю. Архивные данные за месяц целиком и за предыдущие месяцы, начиная с января 2011 года, Вы можете получить, выбрав интересующий диапазон дат из раскрывающегося списка и нажав кнопку "Ввод!".


*Определитесь, кто Вы:
робот инопланетянин человек

Внимание! Время в таблицах - всемирное. Для получения местного времени необходимо прибавить поправку, которая равна 1 ч.

Смотрите также архив погоды в соседних городах и на ближайших метеорологических станциях:

Погода в Ньамтугу (Того) (68 км)
Погода в Каре (Того) (89 км)
Погода в Манго (Того) (100 км)
Погода в Дапаоне (Того) (128 км)
Погода в Сокоде (Того) (151 км)
Погода в Параку (Бенин) (174 км)
Погода в Йенди (Гана) (181 км)
Погода в Канди (Бенин) (192 км)
Погода в Фада-Нгурме (Буркина-Фасо) (220 км)
Погода в Тамале (Гана) (261 км)

Пояснения к столбцам:

Ветер - указаны скорость ветра в м/с - средняя за 10 мин, порывы в срок и между сроками (в фигурных скобках) и направление, откуда дует ветер: С - северный, СВ - северо-восточный, В - восточный, ЮВ - юго-восточный, Ю - южный, ЮЗ - юго-западный, З - западный, СЗ - северо-западный.
Видимость - горизонтальная дальность видимости в метрах или километрах. При видимости от 1 до 10 км при отсутствии осадков обычно наблюдается дымка, при ухудшении видимости до 1 км и менее - туман. В сухую погоду видимость может ухудшаться дымом, пылью или мглою.
Явления - указаны атмосферные явления, наблюдавшиеся в срок или в последний час перед сроком; фигурными скобками обозначены явления, наблюдавшиеся между сроками (за 1-3 часа до срока); квадратными скобками обозначены град или гололедные отложения с указанием их диаметра в мм.
Облачность - указаны через наклонную черту общая и нижняя облачность в баллах и высота нижней границы облаков в метрах; квадратными скобками обозначены формы облаков: Ci - перистые, Cs - перисто-слоистые, Cc - перисто-кучевые, Ac - высококучевые, As - высокослоистые, Sc - слоисто-кучевые, Ns - слоисто-дождевые, Cu - кучевые, Cb - кучево-дождевые. Подробнее классификацию облаков см. в Атласе облаков (PDF).
T - Температура воздуха - температура, измеренная на высоте 2 м над землей.
Td - Температура точки росы - температура, при понижении до которой содержащийся в воздухе водяной пар достигнет насыщения.
f - Относительная влажность воздуха - влажноcть воздуха, измеренная на высоте 2 м над землей.
Te - Эффективная температура - температура, которую ощущает одетый по сезону человек в тени. Характеристика душности погоды. При расчете учитывается влияние влажности воздуха и скорости ветра на теплоощущения человека.
Tes - Эффективная температура на солнце - температура, которую ощущает человек, с поправкой на солнечный нагрев. Характеристика знойности погоды. Зависит от высоты солнца над горизонтом, облачности и скорости ветра. Ночью, в пасмурную погоду, а также при ветре 12 м/с и более поправка равна нулю.
P - Атмосферное давление - приведенное к уровню моря атмосферное давление.
Po - Атмосферное давление - измеренное на уровне метеостанции атмосферное давление.
Tmin - Минимальная температура - минимум температуры воздуха на высоте 2 м над землей.
Tmax - Максимальная температура - максимум температуры воздуха на высоте 2 м над землей.
R - Количество осадков - Количество выпавших осадков за период времени, мм. При наведении курсора мыши на число - период времени, за который выпало указанное количество осадков.
R24 - Количество осадков - Количество выпавших осадков за 24 часа, мм.
S - Снежный покров - Высота снежного покрова, см. При наведении курсора мыши на число - состояние снежного покрова и степень покрытия местности в баллах.